Regional Weather Roundup
Issued by NWS

Home | Current Version | Previous Version | Graphics & Text | Print | Product List | Glossary On
Versions: 1 2 3 4 5 6 7 8 9 10 11 12 13 14 15 16 17 18 19 20 21 22 23 24 25 26 27
000
ASUS45 KCYS 260710
RWRWY

WYOMING REGIONAL WEATHER ROUNDUP
NATIONAL WEATHER SERVICE CHEYENNE WY
100 AM MDT TUE JUL 26 2016

NOTE:  "FAIR" INDICATES FEW OR NO CLOUDS BELOW 12,000 FEET
WITH NO SIGNIFICANT WEATHER AND/OR OBSTRUCTIONS TO VISIBILITY.

WYZ001-260800-
YELLOWSTONE NATIONAL PARK

CITY           SKY/WX    TMP DP  RH WIND       PRES   REMARKS
LK YELLOWSTONE   N/A     47  32  56 W3        30.36S
W YELLOWSTONE  NOT AVBL

$$
WYZ002>013-054>058-071-098>099-260800-
NORTHERN WYOMING

CITY           SKY/WX    TMP DP  RH WIND       PRES   REMARKS
JACKSON        FAIR      50  30  46 N10       30.23S
CODY           FAIR      73  39  29 NW12G23   30.17R
GREYBULL       FAIR      80  41  24 NW13      29.97S
WORLAND        FAIR      67  33  28 NW12      30.02R
SHERIDAN       FAIR      76  41  28 NW21G29   30.02R
BUFFALO        FAIR      75  35  23 MISG      30.07F
GILLETTE       FAIR      75  55  49 S12       30.02F
HULETT         FAIR      72  46  40 CALM      30.06F
NEWCASTLE      FAIR      77  55  47 SE14G22   30.08S

$$
WYZ014>020-022>026-101>103-260800-
CENTRAL WYOMING

CITY           SKY/WX    TMP DP  RH WIND       PRES   REMARKS
BIG PINEY      FAIR      54  25  32 N10       30.29S
PINEDALE       FAIR      54  32  43 W9        30.30S
DUBOIS         CLOUDY    57  23  26 NW13      30.28F HAZE
LANDER         FAIR      71  32  23 W10       30.12S
RIVERTON       FAIR      73  30  20 NW14      30.12S
CASPER         FAIR      63  42  46 NW8       30.09S
DOUGLAS          N/A    N/A N/A N/A MISG      30.09S

$$
WYZ021-027>030-104>119-260800-
SOUTHERN WYOMING

CITY           SKY/WX    TMP DP  RH WIND       PRES   REMARKS
EVANSTON       FAIR      65  35  33 E5        30.30S
KEMMERER         N/A    N/A N/A N/A NW5       30.30S
FORT BRIDGER   FAIR      68  31  26 SW12      30.30S
ROCK SPRINGS   FAIR      70  29  21 S6        30.24S
DIXON          FAIR      63  37  38 E3        30.28S
RAWLINS        FAIR      70  28  21 W7        30.25S
SARATOGA       FAIR      61  34  36 SE7       30.29S
LARAMIE        FAIR      59  46  62 S8        30.29F
CHEYENNE       FAIR      64  55  72 W8        30.21F
TORRINGTON     FAIR      70  63  78 E12       30.08F
PINE BLUFFS    FAIR      64  59  82 SE14      30.16F

$$




USA.gov is the U.S. government's official web portal to all federal, state and local government web resources and services.